Location: *
(50.0228°S, 177.2688°W)
Time: 09:10:33
(UTC+00:00)

STARLINK-1039 - Pass Details

Date: 07 April 2020
Orbit: 549 x 550 km, 53.0° (Epoch: 02 June)

Event Time Altitude Azimuth Distance (km) Brightness Sun altitude
Rises 07:15:41 0° 260° (W) 2,749 8.9 -18.9°
Reaches altitude 10° 07:17:58 10° 255° (WSW) 1,853 7.6 -19.3°
Maximum altitude 07:22:08 57° 176° (S) 666 4.0 -19.9°
Enters shadow 07:23:06 44° 126° (SE) 779 4.0 -20.1°
